La Nava - Corral De Ayllón Airport

Jump to: basic info | weather | comments

Related pages: nearby airports | nearby navaids | notams | map

Basic information (top)

Codes: LECA
Location: lon 41.410801, lat -3.448330, elev 3,280 ft / 1,000 m msl
Status: small_airport

Weather (top)

Current conditions for Torrejón Airport 55nm (102km) S (rec'd 2014/04/25 00:00Z):

LETO 250000Z 29007KT 9999 FEW050 SCT075 08/05 Q1018 NOSIG

Airport forecast for Torrejón Airport 55nm (102km) S (rec'd 2014/04/24 00:28Z):

TAF LETO 242300Z 2500/2524 28010KT 9999 SCT040 TX17/2514Z TN05/2506Z 
      BECMG 2509/2510 32012KT PROB30 
      TEMPO 2511/2518 32015G25KT 
      BECMG 2521/2522 VRB05KT

Latest comments (top)

No comments yet for La Nava - Corral De Ayllón Airport

More... (top)

See also NOTAMs and nearby airports and navaids, or visit the La Nava - Corral De Ayllón Airport page at the main OurAirports website..